LogoCoinalyze
    Ad-Free Version 主页 市场 资金费率
    期货数据
    • 汇总数据 (币种)
    • 单币图表
    • 全局图表
    提醒
    TA
    Bitcoin Ethereum BNB Ripple Tron ZCash Dogecoin Monero UNUS SED LEO Chainlink Cardano Stellar Lumens Bitcoin Cash Litecoin Hedera Cronos Polkadot Ethereum Classic Algorand Quant Cosmos VeChain Dash Bitcoin SV BitTorrent Terra Decred Tezos Iota The Graph THETA MultiversX Decentraland NEO Chiliz Golem Basic Attention Token Horizen Qtum 0x DigiByte Beam RIF Token FTX Token FUNToken Holo aelf Zilliqa Ontology Nano Enjin Coin Ravencoin Verge Mask Network Siacoin Status WINk Waves IoTeX Power Ledger iExec RLC Steem Kyber Network Crystal Lisk Ardor Ark WOO Network IOST WAX Icon Storj Wanchain Loopring Bitcoin Diamond Augur AdEx Bitcoin Gold OmiseGO NEM MonaCoin BitShares Ren Komodo V Systems Nuls Mithril SOLVE Maker EOS Aion Nebulas HedgeTrade Bread Fetch.ai TomoChain Polygon Fantom Waltonchain GXChain Bytom Metaverse ETP MaidSafeCoin QASH
    排序方式:
    更多
    • API
    • K线形态
    • 捐赠
    • 联系我们
    • 网站地图
    • 隐私政策
    • 免责声明
    • Theme:
    简体中文
    • English
    • Français
    • Русский
    • Deutsch
    • Türkçe
    • Nederlands
    • Português (BR)
    • Español
    • 한국어
    • 日本語
     
    登录 / 注册
    Markets/ Pepe/ PEPE 至 USDT/ PEPEUSDT Poloniex
    交易
    WL
    聊天
    统计
    新闻
    ⦷
    AAA
    0.00000344026 15711778.00000000 00:06:45
    0.00000343977 29071711.00000000 00:06:42
    0.00000344090 11034945.00000000 00:06:40
    0.00000343905 29077797.00000000 00:06:39
    0.00000344023 29067823.00000000 00:06:38
    0.00000343965 24490593.00000000 00:06:35
    0.00000343908 29077543.00000000 00:06:33
    0.00000344023 29067823.00000000 00:06:30
    0.00000344040 22650283.00000000 00:06:26
    0.00000344009 29069006.00000000 00:06:24
    0.00000343076 26387223.00000000 00:06:23
    0.00000343033 7430040.00000000 00:06:20
    0.00000343053 29150014.00000000 00:06:17
    0.00000342911 23764701.00000000 00:06:15
    0.00000342966 13337639.00000000 00:06:14
    0.00000342915 29161745.00000000 00:06:12
    0.00000342921 29161235.00000000 00:06:12
    0.00000343027 5289832.00000000 00:06:09
    0.00000343087 29147125.00000000 00:06:06
    0.00000342920 28202821.00000000 00:06:03
    0.00000342944 29159279.00000000 00:06:00
    0.00000342983 29155963.00000000 00:05:56
    0.00000343983 29071204.00000000 00:05:52
    0.00000343974 8646440.00000000 00:05:49
    0.00000343992 26818756.00000000 00:05:46
    0.00000343994 29070274.00000000 00:05:43
    0.00000343949 29074077.00000000 00:05:41
    0.00000343960 20906382.00000000 00:05:37
    0.00000343994 29070274.00000000 00:05:36
    0.00000344026 568855.00000000 00:05:34
    0.00000343911 29077290.00000000 00:05:33
    0.00000344078 22427010.00000000 00:05:32
    0.00000344060 8942534.00000000 00:05:31
    0.00000343914 24195488.00000000 00:05:29
    0.00000344092 29061995.00000000 00:05:29
    0.00000343968 16975397.00000000 00:05:29
    0.00000344003 22559175.00000000 00:05:28
    0.00000344083 12914124.00000000 00:05:27
    0.00000344075 24501496.00000000 00:05:23
    0.00000344020 28434817.00000000 00:05:22
    0.00000343988 20557195.00000000 00:05:19
    0.00000343932 29075514.00000000 00:05:18
    0.00000343948 29074162.00000000 00:05:17
    0.00000343903 25560371.00000000 00:05:13
    0.00000344000 16178425.00000000 00:05:10
    0.00000343972 23259553.00000000 00:05:09
    0.00000344009 4765523.00000000 00:05:07
    0.00000343937 29075092.00000000 00:05:06
    0.00000344089 29062248.00000000 00:05:02
    0.00000343928 29075853.00000000 00:05:00
    0.00000343986 29070950.00000000 00:04:58
    0.00000343923 29076275.00000000 00:04:56
    0.00000343952 29073824.00000000 00:04:52
    0.00000343934 16998971.00000000 00:04:50
    0.00000343934 29075345.00000000 00:04:48
    0.00000343935 29075261.00000000 00:04:45
    0.00000344006 29069260.00000000 00:04:41
    0.00000344005 29069344.00000000 00:04:40
    0.00000343969 29072387.00000000 00:04:39
    0.00000344066 29064191.00000000 00:04:38
    0.00000344083 29062755.00000000 00:04:37
    0.00000344097 1692360.00000000 00:04:36
    0.00000344051 9906016.00000000 00:04:34
    0.00000344075 29063430.00000000 00:04:31
    0.00000343992 27436002.00000000 00:04:29
    0.00000344037 24890275.00000000 00:04:26
    0.00000343935 16908110.00000000 00:04:23
    0.00000343957 28411608.00000000 00:04:18
    0.00000344032 29067063.00000000 00:04:17
    0.00000344058 29064866.00000000 00:04:14
    0.00000343931 5096556.00000000 00:04:13
    0.00000343041 29151034.00000000 00:04:12
    0.00000343977 29071711.00000000 00:04:10
    0.00000344064 29064360.00000000 00:04:08
    0.00000343871 29080672.00000000 00:04:08
    0.00000344067 23697824.00000000 00:04:02
    0.00000344008 21850233.00000000 00:04:00
    0.00000343926 29076022.00000000 00:03:57
    0.00000343998 5560223.00000000 00:03:56
    0.00000343939 18674473.00000000 00:03:53
    0.00000343937 29075092.00000000 00:03:53
    0.00000343954 21159864.00000000 00:03:52
    0.00000343010 19668081.00000000 00:03:49
    0.00000342949 29158854.00000000 00:03:46
    0.00000342906 25168422.00000000 00:03:42
    0.00000343058 29149589.00000000 00:03:42
    0.00000342978 19556271.00000000 00:03:39
    0.00000342940 29159619.00000000 00:03:36
    0.00000342929 29160555.00000000 00:03:33
    0.00000343099 10867807.00000000 00:03:31
    0.00000344055 27375331.00000000 00:03:30
    0.00000343981 29071373.00000000 00:03:27
    0.00000343923 29076275.00000000 00:03:23
    0.00000344041 29066303.00000000 00:03:20
    0.00000343975 7794714.00000000 00:03:18
    0.00000343940 29074838.00000000 00:03:16
    0.00000344070 19759929.00000000 00:03:15
    0.00000343951 24966194.00000000 00:03:14
    0.00000344100 29061319.00000000 00:03:13
    0.00000344058 14509289.00000000 00:03:11
    注销
    AAA
    帮助
    🙂 🤣 😎 🤗 😛 😉 😜 🤑 🤔 😑 😴 😕 🙃 😲 😇 🙁 😢 😬 😟 😠 🕺 🏃 💪 ✌ 👌 👍 👎 👏 👋 🤝 🍺 🍻 🐋 🐟 🦈 🗽 🚄 ✈ 🛑 🚀 🏦 🌚 ⭐ 🌞 ⚡ 🏆 💰 💲 🔨 ❓ ❗ 💯 🔶 🏁
    ☺
    登录 或 注册 并聊天
    24 小时
    变动
    -0.84%
    成交量
    1,159,604,630,378
    最高
    0.00000349988
    最低
    0.00000335900
    7 天
    变动
    -10.62%
    成交量
    12,121,560,869,585
    最高
    0.00000444573
    最低
    0.00000335900
    30 天
    变动
    +18.19%
    成交量
    53,862,797,667,975
    最高
    0.00000456134
    最低
    0.00000252970
    Pepe price rallies 25% as whale demand and futures interest surge
    Key takeaways Pepe has gained 25% this week, including a combined 22% advance over the previous two days. Seven whale transactions worth more than $1 million each occurred Thursday, the highest...
    coinjournal.net
    Aug 21, 2026 08:41
    PEPE Supply on Exchanges Just Took a Massive Hit – What’s Next?
    A drop in PEPE exchange balances has added to bullish expectations despite muted trader interest.
    cryptopotato.com
    Aug 6, 2026 20:02
    PEPE Exchange Outflows Hit Nearly 2-Year High as Whales Accumulate
    Pepe (PEPE) recorded its largest single-day exchange outflow since November 2024, with 4.54 trillion tokens leaving trading platforms, signaling that holders are moving supply away from immediate...
    beincrypto.com
    Aug 6, 2026 04:57
    Meme Coin Based on White House Shooter Conspiracy Rallies 320%
    $HENRY surged 300% after a 2023 Pepe tweet appeared to name the White House shooter, fueling a viral time-travel meme. The post Meme Coin Based on White House Shooter Conspiracy Rallies 320%...
    beincrypto.com
    Apr 27, 2026 16:11
    PEPE surges 4% as market sentiment improves, eyes Key resistance breakout
    Key takeaways Pepe extends gains on Wednesday, stretching its rally from the 50-day EMA. Derivatives data show heightened retail activity as risk-on sentiment returns to the market. Pepe (PEPE) is...
    coinjournal.net
    Apr 22, 2026 11:44
    Why The PEPE Price Could Stage A 55X Rally To Reach New $0.0001 ATH
    The PEPE price has now started to edge back into bullish conversations after the recent inflows into the crypto market. The last time PEPE’s weekly chart printed the kind of structure now...
    newsbtc.com
    Apr 21, 2026 15:30
    Pepe (PEPE) surges 9%, drawing interest from whales
    Key takeaways PEPE is up 9% in the last 24 hours, making it one of the best performers among the top 50 cryptocurrencies by market cap. The rally comes amid renewed interest from whales and retail...
    coinjournal.net
    Apr 16, 2026 07:40
    Murad Says SPX6900 (SPX) Is Primed for a Rally — Is He Right This Time?
    Crypto influencer Murad Mahmudov claims SPX6900 (SPX) is stabilizing at the same market cap level where Dogecoin (DOGE) and Pepe (PEPE) consolidated before their explosive rallies. The...
    beincrypto.com
    Apr 5, 2026 21:36
    The Shiba Inu Of This Cycle: Analyst Shares Why It Is Better To Buy PEPE Now
    In the bull market cycle of 2021-2022, the Shiba Inu meme coin made waves in a way that changed the face of meme coins forever. This came after Dogecoin’s initial 36,000% rally, and Shiba Inu...
    newsbtc.com
    Apr 4, 2026 07:30
    PEPE Explodes by 18% Amid Altcoin Rally, BTC Tapped $74K: Market Watch
    The frog-themed meme coin is today's biggest gainer, followed by TAO, DOT, and BONK.
    cryptopotato.com
    Mar 16, 2026 10:56
    Should PEPE traders brace for volatility as short squeeze potential builds?
    The memecoin market has seen its collective market capitalization drop by 48% over the past year, and 6.9% over the past month, according to CoinMarketCap. According to Glassnode, the memecoin...
    ambcrypto.com
    Mar 7, 2026 18:00
    只需在聊天中输入命令即可。将 nick1 替换为实际的昵称。
    • /ignore nick1 忽略聊天用户
    • /unignore nick1 取消忽略聊天用户
    • /ignorelist 显示已忽略的聊天用户